DW7980 Weather Reports


Display with metric or nautical units.
time (UTC)temp
F
wind
direction
speed
MPH
gust
MPH
rain 1hr
in
rain 24hr
in
rain mn
in
humidity
%
barometer
mb
20260905044604 55 0 0.0 0.0 0.00 0.28 0.27 91 1016.1
20260905044044 55 0 0.0 0.0 0.00 0.28 0.27 91 1016.2
20260905043544 54 0 0.0 0.0 0.00 0.28 0.27 90 1016.0
20260905043058 54 0 0.0 0.0 0.00 0.28 0.27 90 1016.1
20260905042544 54 0 0.0 0.0 0.00 0.28 0.27 90 1016.0
20260905042042 55 0 0.0 0.0 0.00 0.28 0.27 90 1016.1
20260905041556 55 0 0.0 0.0 0.00 0.28 0.27 90 1016.0
20260905041041 55 0 0.0 0.0 0.00 0.28 0.27 90 1015.9
20260905040540 55 0 0.0 0.0 0.00 0.28 0.27 90 1015.9
20260905040103 55 0 0.0 0.0 0.00 0.28 0.27 90 1015.9
20260905035538 55 0 0.0 0.0 0.00 0.28 0.27 90 1015.9
20260905035038 55 0 0.0 0.0 0.00 0.28 0.27 90 1015.8
20260905034611 55 0 0.0 0.0 0.00 0.28 0.27 90 1015.6
20260905034040 55 0 0.0 0.0 0.00 0.28 0.27 90 1015.7
20260905033538 55 0 0.0 0.0 0.00 0.28 0.27 90 1015.7
20260905033111 55 0 0.0 0.0 0.00 0.28 0.27 90 1015.6
20260905032539 55 0 0.0 0.0 0.00 0.28 0.27 90 1015.6
20260905032041 56 0 0.0 0.0 0.00 0.28 0.27 90 1015.4
20260905031615 56 0 0.0 0.0 0.00 0.28 0.27 90 1015.4
20260905031038 56 0 0.0 0.0 0.00 0.28 0.27 89 1015.4
20260905030538 56 0 0.0 0.0 0.00 0.28 0.27 90 1015.4
20260905030110 56 0 0.0 0.0 0.00 0.28 0.27 89 1015.3
20260905025540 56 0 0.0 0.0 0.00 0.28 0.27 89 1015.3
20260905025049 56 0 0.0 0.0 0.00 0.28 0.27 89 1015.3
20260905024602 56 0 0.0 0.0 0.00 0.28 0.27 89 1015.3
20260905024040 57 0 0.0 0.0 0.00 0.28 0.27 89 1015.3
20260905023546 57 0 0.0 0.0 0.00 0.28 0.27 89 1015.3
20260905023137 57 0 0.0 0.0 0.00 0.28 0.27 89 1015.3
20260905022542 57 0 0.0 0.0 0.00 0.28 0.27 89 1015.3
20260905022041 57 0 0.0 0.0 0.00 0.28 0.27 89 1015.2
20260905021602 57 0 0.0 0.0 0.00 0.28 0.27 89 1015.2
20260905021041 57 0 0.0 0.0 0.00 0.28 0.27 89 1015.0
20260905020538 57 0 0.0 0.0 0.00 0.28 0.27 89 1015.0
20260905020103 58 0 0.0 0.0 0.00 0.28 0.27 89 1015.0
20260905015541 58 0 0.0 0.0 0.00 0.28 0.27 89 1015.0
20260905015042 58 0 0.0 0.0 0.00 0.28 0.27 89 1014.9
20260905014556 58 0 0.0 0.0 0.00 0.28 0.27 89 1015.0
20260905014041 58 0 0.0 0.0 0.00 0.28 0.27 89 1015.0
20260905013537 58 0 0.0 0.0 0.00 0.28 0.27 89 1015.0
20260905013100 58 0 0.0 0.0 0.00 0.28 0.27 89 1015.0
20260905012541 58 0 0.0 0.0 0.00 0.28 0.27 90 1015.0
20260905012040 58 0 0.0 0.0 0.00 0.28 0.27 90 1014.9
20260905011600 58 0 0.0 0.0 0.00 0.28 0.27 90 1014.9
20260905011041 58 0 0.0 0.0 0.00 0.28 0.27 90 1014.7
20260905010541 58 0 0.0 0.0 0.00 0.28 0.27 90 1014.7
20260905010053 58 0 0.0 0.0 0.00 0.28 0.27 89 1014.7
20260905005543 58 0 0.0 0.0 0.00 0.30 0.27 89 1014.6
20260905005041 58 0 0.0 0.0 0.00 0.30 0.27 89 1014.6
20260905004554 58 0 0.0 0.0 0.00 0.30 0.27 89 1014.6
20260905004038 58 0 0.0 0.0 0.00 0.30 0.27 89 1014.6
20260905003543 58 0 0.0 0.0 0.00 0.30 0.27 88 1014.7
20260905003101 58 0 0.0 0.0 0.00 0.30 0.27 88 1014.7
20260905002540 58 0 0.0 0.0 0.00 0.30 0.27 88 1014.6
20260905002045 58 0 0.0 0.0 0.00 0.30 0.27 88 1014.7
20260905001606 58 0 0.0 0.0 0.00 0.30 0.27 89 1014.8
20260905001041 58 0 0.0 0.0 0.00 0.30 0.27 89 1014.8
20260905000543 59 0 0.0 0.0 0.00 0.30 0.27 89 1014.7
20260905000110 59 0 0.0 0.0 0.00 0.30 0.27 88 1014.7
20260904235538 59 0 0.0 0.0 0.00 0.36 0.27 89 1014.6
20260904235038 59 0 0.0 0.0 0.00 0.36 0.27 89 1014.5
20260904234553 59 0 0.0 3.0 0.00 0.36 0.27 89 1014.4
20260904234038 59 0 0.0 3.0 0.00 0.36 0.27 89 1014.5
20260904233541 59 0 0.0 3.0 0.00 0.36 0.27 90 1014.5
20260904233100 59 0 0.0 5.0 0.00 0.36 0.27 89 1014.5
20260904232541 58 63 0.0 5.0 0.00 0.36 0.27 89 1014.5
20260904232038 58 122 0.0 5.0 0.00 0.36 0.27 88 1014.5
20260904231602 58 0 1.0 5.0 0.01 0.36 0.27 89 1014.5
20260904231038 58 67 0.0 0.0 0.01 0.36 0.27 89 1014.4
20260904230538 59 0 0.0 0.0 0.02 0.36 0.27 89 1014.5
20260904230055 58 0 0.0 0.0 0.03 0.36 0.27 89 1014.5
20260904225540 59 0 0.0 0.0 0.03 0.36 0.27 90 1014.5
20260904225038 58 0 0.0 3.0 0.03 0.36 0.27 90 1014.5
20260904224559 58 0 0.0 3.0 0.03 0.36 0.27 90 1014.4
20260904224043 58 0 1.0 3.0 0.04 0.36 0.27 90 1014.5
20260904223540 58 0 0.0 4.0 0.04 0.36 0.27 90 1014.6
20260904223101 57 79 1.0 4.0 0.04 0.36 0.27 90 1014.6
20260904222540 57 0 0.0 2.0 0.05 0.36 0.27 89 1014.6
20260904222041 57 52 0.0 2.0 0.05 0.36 0.27 89 1014.6
20260904221555 56 0 0.0 0.0 0.04 0.35 0.26 88 1014.7
20260904221041 56 0 0.0 0.0 0.06 0.35 0.26 88 1014.7
20260904220542 57 0 0.0 0.0 0.07 0.34 0.25 88 1014.6
20260904220112 57 0 0.0 0.0 0.09 0.33 0.24 88 1014.7
20260904215538 57 0 0.0 0.0 0.14 0.34 0.24 87 1014.6
20260904215043 57 0 0.0 1.0 0.15 0.34 0.24 86 1014.4
20260904214552 57 0 0.0 1.0 0.15 0.34 0.24 85 1014.3
20260904214038 57 0 0.0 1.0 0.14 0.33 0.23 85 1014.3
20260904213542 57 0 0.0 1.0 0.14 0.33 0.23 85 1014.1
20260904213055 58 0 0.0 1.0 0.14 0.33 0.23 83 1014.1
20260904212541 58 0 0.0 1.0 0.13 0.32 0.22 84 1014.0
20260904212044 59 0 0.0 1.0 0.13 0.32 0.22 83 1014.0
20260904211558 59 0 0.0 3.0 0.13 0.32 0.22 82 1014.0
20260904211038 59 266 0.0 5.0 0.11 0.30 0.20 82 1014.0
20260904210538 60 0 1.0 5.0 0.08 0.27 0.17 80 1014.0
20260904210119 62 227 2.0 5.0 0.06 0.25 0.15 77 1014.1
20260904205538 63 205 2.0 5.0 0.01 0.20 0.10 73 1013.8
20260904205038 65 119 0.0 3.0 0.00 0.19 0.09 71 1013.6
20260904204557 66 0 0.0 0.0 0.00 0.19 0.09 70 1013.4
20260904204044 66 0 0.0 0.0 0.00 0.19 0.09 70 1013.4
20260904203541 66 0 0.0 0.0 0.00 0.19 0.09 68 1013.3
20260904203056 67 0 0.0 2.0 0.00 0.19 0.09 67 1013.2
20260904202541 67 0 0.0 2.0 0.00 0.19 0.09 68 1013.2
20260904202040 67 0 0.0 2.0 0.00 0.19 0.09 65 1013.2
20260904201554 67 0 0.0 2.0 0.00 0.19 0.09 67 1013.2
20260904201038 67 50 0.0 2.0 0.00 0.19 0.09 69 1013.1
20260904200541 67 50 0.0 2.0 0.00 0.19 0.09 71 1013.1
20260904200105 67 0 0.0 2.0 0.00 0.19 0.09 69 1013.1
20260904195540 66 0 0.0 2.0 0.00 0.20 0.09 72 1013.1
20260904195042 66 0 0.0 2.0 0.00 0.20 0.09 69 1013.2
20260904194603 66 0 0.0 3.0 0.00 0.20 0.09 68 1013.2
20260904194041 66 0 0.0 3.0 0.00 0.20 0.09 63 1013.3
20260904193541 67 0 1.0 3.0 0.00 0.20 0.09 68 1013.4
20260904193101 66 0 0.0 0.0 0.00 0.20 0.09 72 1013.3
20260904192541 65 0 0.0 0.0 0.00 0.20 0.09 71 1013.3
20260904192037 65 0 0.0 3.0 0.00 0.20 0.09 67 1013.3
20260904191554 66 0 0.0 7.0 0.00 0.20 0.09 62 1013.4
20260904191038 66 65 1.0 7.0 0.00 0.20 0.09 71 1013.3
20260904190538 66 288 1.0 4.0 0.00 0.20 0.09 65 1013.4
20260904190050 65 65 1.0 3.0 0.00 0.20 0.09 71 1013.4
20260904185538 64 0 0.0 5.0 0.00 0.21 0.09 73 1013.5
20260904185038 64 51 1.0 5.0 0.00 0.21 0.09 77 1013.7
20260904184607 63 150 0.0 3.0 0.00 0.21 0.09 74 1013.6
20260904184038 63 0 0.0 3.0 0.00 0.21 0.09 79 1013.6
20260904183538 63 59 1.0 3.0 0.00 0.21 0.09 77 1013.6
20260904183054 62 0 0.0 0.0 0.00 0.21 0.09 80 1013.5
20260904182538 62 0 0.0 0.0 0.00 0.21 0.09 78 1013.5
20260904182038 62 0 0.0 0.0 0.00 0.21 0.09 85 1013.4
20260904181556 61 0 0.0 0.0 0.00 0.21 0.09 84 1013.4
20260904181038 61 0 0.0 0.0 0.00 0.21 0.09 85 1013.4
20260904180540 60 0 0.0 0.0 0.00 0.21 0.09 85 1013.3
20260904180114 60 0 0.0 0.0 0.00 0.21 0.09 83 1013.3
20260904175537 59 0 0.0 0.0 0.00 0.21 0.09 83 1013.4
20260904175037 59 0 0.0 0.0 0.00 0.21 0.09 85 1013.4
20260904174608 59 0 0.0 0.0 0.00 0.21 0.09 84 1013.4
20260904174038 59 0 0.0 0.0 0.00 0.21 0.09 83 1013.3
20260904173538 60 0 0.0 0.0 0.00 0.21 0.09 85 1013.4
20260904173104 60 0 0.0 0.0 0.00 0.21 0.09 87 1013.3
20260904172538 60 0 0.0 0.0 0.00 0.21 0.09 89 1013.3
20260904172038 60 0 0.0 0.0 0.00 0.21 0.09 91 1013.1
20260904171557 60 0 0.0 3.0 0.00 0.21 0.09 94 1013.1
20260904171038 61 0 0.0 3.0 0.00 0.21 0.09 94 1013.1
20260904170538 61 0 1.0 3.0 0.00 0.21 0.09 94 1013.1
20260904170059 60 0 0.0 0.0 0.00 0.21 0.09 94 1013.0
20260904165541 59 0 0.0 1.0 0.00 0.21 0.09 94 1012.9
20260904165039 58 0 0.0 2.0 0.00 0.21 0.09 93 1013.1
20260904164553 57 0 0.0 2.0 0.00 0.21 0.09 93 1013.1
20260904164038 56 0 0.0 2.0 0.00 0.21 0.09 93 1013.1
20260904163538 56 0 0.0 0.0 0.00 0.21 0.09 93 1012.9
20260904163107 55 0 0.0 0.0 0.00 0.21 0.09 93 1012.9
20260904162538 55 0 0.0 0.0 0.00 0.21 0.09 93 1012.9
20260904162038 55 0 0.0 0.0 0.00 0.21 0.09 93 1012.9
20260904161556 55 0 0.0 0.0 0.00 0.21 0.09 93 1012.9
20260904161042 55 0 0.0 0.0 0.00 0.21 0.09 93 1013.0
20260904160539 54 0 0.0 0.0 0.01 0.21 0.09 93 1012.9
20260904160057 54 0 0.0 0.0 0.01 0.21 0.09 93 1012.9
20260904155539 54 0 0.0 1.0 0.01 0.25 0.09 93 1013.0
20260904155046 54 0 0.0 1.0 0.01 0.25 0.09 93 1013.0
20260904154603 53 0 0.0 1.0 0.01 0.25 0.09 92 1013.0
20260904154038 53 0 0.0 1.0 0.01 0.25 0.09 92 1012.9
20260904153540 53 0 0.0 1.0 0.01 0.25 0.09 92 1013.0
20260904153115 53 0 0.0 1.0 0.01 0.25 0.09 93 1012.9
20260904152541 53 56 0.0 1.0 0.01 0.25 0.09 93 1012.9
20260904152042 53 0 0.0 1.0 0.01 0.25 0.09 92 1012.8
20260904151600 53 0 0.0 1.0 0.01 0.25 0.09 92 1012.8
20260904151042 52 0 0.0 2.0 0.01 0.25 0.09 92 1012.8
20260904150538 52 57 0.0 2.0 0.00 0.24 0.08 92 1012.7
20260904150053 52 0 0.0 2.0 0.00 0.24 0.08 92 1012.6
20260904145539 52 57 1.0 4.0 0.00 0.27 0.08 92 1012.6
20260904145041 52 0 1.0 4.0 0.00 0.27 0.08 92 1012.5
20260904144607 52 77 0.0 4.0 0.00 0.27 0.08 92 1012.5
20260904144041 52 0 0.0 2.0 0.00 0.27 0.08 92 1012.5
20260904143541 52 0 0.0 2.0 0.00 0.27 0.08 92 1012.5
20260904143103 52 0 0.0 3.0 0.00 0.27 0.08 92 1012.4
20260904142542 52 63 0.0 3.0 0.00 0.27 0.08 92 1012.2
20260904142038 52 63 1.0 3.0 0.00 0.27 0.08 92 1012.3
20260904141556 52 62 0.0 2.0 0.00 0.27 0.08 92 1012.2
20260904141042 52 0 0.0 3.0 0.00 0.27 0.08 92 1012.0
20260904140541 52 0 0.0 3.0 0.00 0.27 0.08 92 1012.0
20260904140054 52 0 1.0 3.0 0.00 0.27 0.08 92 1012.0
20260904135541 52 0 0.0 3.0 0.00 0.27 0.08 92 1012.0
20260904135039 52 62 1.0 4.0 0.00 0.27 0.08 92 1012.0
20260904134603 52 62 1.0 4.0 0.01 0.27 0.08 92 1012.0
20260904134046 52 62 2.0 4.0 0.01 0.27 0.08 92 1012.0
20260904133540 52 69 0.0 2.0 0.01 0.27 0.08 92 1011.9
20260904133107 52 69 1.0 2.0 0.01 0.27 0.08 92 1011.8
20260904132539 52 69 0.0 1.0 0.01 0.27 0.08 92 1011.8
20260904132039 52 0 0.0 1.0 0.01 0.27 0.08 92 1011.7
20260904131640 52 0 0.0 1.0 0.01 0.27 0.08 92 1011.7
20260904131038 52 0 0.0 0.0 0.01 0.27 0.08 92 1011.6
20260904130538 52 0 0.0 1.0 0.01 0.27 0.08 92 1011.6
20260904130053 52 0 0.0 2.0 0.01 0.27 0.08 92 1011.5
20260904125541 52 0 0.0 3.0 0.01 0.27 0.08 92 1011.5
20260904125039 52 69 1.0 3.0 0.01 0.27 0.08 92 1011.4
20260904124608 52 68 1.0 3.0 0.00 0.26 0.07 92 1011.7
20260904124039 52 0 0.0 3.0 0.00 0.26 0.07 92 1011.6
20260904123538 52 0 0.0 2.0 0.00 0.26 0.07 91 1011.5
20260904123112 52 0 0.0 2.0 0.00 0.26 0.07 91 1011.5
20260904122540 51 0 0.0 1.0 0.01 0.26 0.07 91 1011.4
20260904122041 52 0 0.0 2.0 0.01 0.26 0.07 91 1011.3
20260904121556 52 0 0.0 2.0 0.02 0.26 0.07 91 1011.2
20260904121040 52 0 0.0 1.0 0.03 0.26 0.07 91 1011.1
20260904120538 52 0 0.0 1.0 0.03 0.26 0.07 91 1011.1
20260904120106 52 79 0.0 0.0 0.04 0.26 0.07 91 1011.0
20260904115538 52 0 0.0 2.0 0.04 0.26 0.07 91 1011.0
20260904115039 52 0 0.0 5.0 0.04 0.26 0.07 91 1011.1
20260904114556 52 0 1.0 5.0 0.05 0.26 0.07 91 1011.1
20260904114038 52 78 1.0 5.0 0.05 0.26 0.07 91 1011.1
20260904113538 52 0 0.0 0.0 0.05 0.26 0.07 91 1011.1
20260904113103 52 0 0.0 0.0 0.06 0.26 0.07 91 1011.1
20260904112539 52 0 0.0 0.0 0.05 0.25 0.06 91 1011.1
20260904112042 52 0 0.0 0.0 0.05 0.25 0.06 91 1011.1
20260904111611 52 0 0.0 0.0 0.05 0.24 0.05 91 1011.0
20260904111038 52 0 0.0 0.0 0.04 0.23 0.04 91 1011.0
20260904110538 52 0 0.0 0.0 0.04 0.23 0.04 91 1011.1
20260904110108 52 0 0.0 0.0 0.03 0.22 0.03 91 1011.1
20260904105538 52 0 0.0 0.0 0.03 0.22 0.03 91 1011.0
20260904105038 52 0 0.0 0.0 0.03 0.22 0.03 91 1011.0
20260904104600 52 0 0.0 0.0 0.02 0.21 0.02 91 1011.0
20260904104037 52 0 0.0 0.0 0.02 0.21 0.02 91 1011.0
20260904103537 52 0 0.0 0.0 0.02 0.21 0.02 91 1011.1
20260904103056 52 0 0.0 0.0 0.01 0.20 0.01 91 1011.1
20260904102540 52 0 0.0 0.0 0.01 0.20 0.01 91 1011.0
20260904102038 52 0 0.0 0.0 0.00 0.19 0.00 91 1011.0
20260904101607 52 0 0.0 0.0 0.00 0.19 0.00 91 1010.9
20260904101038 52 0 0.0 0.0 0.00 0.19 0.00 91 1010.8
20260904100538 52 0 0.0 0.0 0.00 0.19 0.00 91 1010.7
20260904095540 52 0 0.0 0.0 0.00 0.19 0.00 91 1010.7
20260904095038 52 0 0.0 0.0 0.00 0.19 0.00 91 1010.7
20260904094555 52 0 0.0 0.0 0.00 0.19 0.00 91 1010.7
20260904094038 52 0 0.0 0.0 0.00 0.19 0.00 91 1010.6
20260904093540 52 0 0.0 0.0 0.00 0.19 0.00 91 1010.7
20260904093112 52 0 0.0 0.0 0.00 0.19 0.00 91 1010.6
20260904092543 52 0 0.0 0.0 0.00 0.19 0.00 91 1010.6
20260904092038 52 0 0.0 0.0 0.00 0.19 0.00 91 1010.6
20260904091553 52 0 0.0 0.0 0.00 0.19 0.00 91 1010.6
20260904091039 52 0 0.0 0.0 0.00 0.19 0.00 91 1010.6
20260904090538 52 0 0.0 0.0 0.00 0.19 0.00 91 1010.6
20260904090052 53 0 0.0 0.0 0.00 0.19 0.00 91 1010.6
20260904085540 53 0 0.0 0.0 0.00 0.20 0.00 91 1010.6
20260904085038 53 0 0.0 0.0 0.00 0.20 0.00 91 1010.7
20260904084555 53 0 0.0 0.0 0.00 0.20 0.00 91 1010.6
20260904084038 53 0 0.0 0.0 0.00 0.20 0.00 91 1010.6
20260904083538 53 0 0.0 0.0 0.00 0.20 0.00 91 1010.6
20260904083056 53 0 0.0 0.0 0.00 0.20 0.00 91 1010.6
20260904082538 53 0 0.0 0.0 0.00 0.20 0.00 91 1010.6
20260904082039 53 0 0.0 0.0 0.00 0.20 0.00 91 1010.6
20260904081551 53 0 0.0 0.0 0.00 0.20 0.00 91 1010.5
20260904081040 53 0 0.0 1.0 0.00 0.20 0.00 91 1010.6
20260904080539 53 0 0.0 1.0 0.00 0.20 0.00 91 1010.7
20260904075538 53 0 0.0 2.0 0.00 0.21 0.00 91 1010.7
20260904075037 53 0 0.0 0.0 0.00 0.21 0.00 91 1010.7
20260904074556 53 0 0.0 4.0 0.00 0.21 0.00 91 1010.8
20260904074037 53 0 0.0 4.0 0.00 0.21 0.00 91 1010.6
20260904073539 53 0 0.0 4.0 0.00 0.21 0.00 91 1010.6
20260904073055 53 0 0.0 2.0 0.00 0.21 0.00 91 1010.6
20260904072538 54 102 0.0 0.0 0.00 0.21 0.00 91 1010.6
20260904072038 54 0 0.0 0.0 0.00 0.21 0.00 91 1010.6
20260904071601 54 0 0.0 0.0 0.00 0.21 0.00 91 1010.6
20260904071038 54 0 0.0 0.0 0.00 0.21 0.00 91 1010.7
20260904070538 54 0 0.0 0.0 0.00 0.21 0.00 91 1010.6
20260904070100 54 0 0.0 0.0 0.00 0.21 0.00 91 1010.6
20260904065542 54 0 0.0 0.0 0.00 0.27 0.21 91 1010.6
20260904065042 54 0 0.0 0.0 0.00 0.27 0.21 91 1010.6
20260904064555 54 0 0.0 0.0 0.00 0.27 0.21 91 1010.7
20260904064042 54 0 0.0 1.0 0.00 0.27 0.21 91 1010.6
20260904063540 54 0 0.0 1.0 0.00 0.27 0.21 91 1010.6
20260904063055 54 0 0.0 1.0 0.00 0.27 0.21 91 1010.6
20260904062538 54 0 0.0 2.0 0.00 0.27 0.21 91 1010.6
20260904062038 54 0 0.0 2.0 0.01 0.27 0.21 91 1010.7
20260904061600 54 0 0.0 0.0 0.01 0.27 0.21 91 1010.6
20260904061038 54 0 0.0 0.0 0.01 0.27 0.21 91 1010.6
20260904060538 54 0 0.0 0.0 0.01 0.27 0.21 91 1010.6
20260904060100 54 0 0.0 0.0 0.01 0.27 0.21 91 1010.6
20260904055538 54 0 0.0 0.0 0.01 0.27 0.21 91 1010.6
20260904055038 54 0 0.0 0.0 0.01 0.27 0.21 91 1010.6
20260904054558 54 0 0.0 0.0 0.01 0.27 0.21 91 1010.7
20260904054038 54 0 0.0 0.0 0.01 0.27 0.21 91 1010.7
20260904053539 54 0 0.0 0.0 0.01 0.27 0.21 91 1010.7
20260904053055 54 0 0.0 0.0 0.01 0.27 0.21 91 1010.7
20260904052539 54 0 0.0 0.0 0.01 0.27 0.21 91 1010.7
20260904052039 54 0 0.0 0.0 0.00 0.26 0.20 91 1010.7
20260904051554 54 0 0.0 0.0 0.00 0.26 0.20 91 1010.8
20260904051039 54 0 0.0 0.0 0.00 0.26 0.20 91 1010.8
20260904050543 54 0 0.0 0.0 0.00 0.26 0.20 91 1010.9
20260904050056 54 0 0.0 0.0 0.00 0.26 0.20 91 1010.9
20260904045538 54 0 0.0 0.0 0.00 0.26 0.20 91 1010.9
20260904045038 54 0 0.0 0.0 0.00 0.26 0.20 91 1010.9